Погода в Жадово

Украина / Черниговская область     52°03′04″N   32°40′03″E
темп.,
°C
ветер,
м/с
пор.,
м/с
влажн.,
%
обл.,
%
осадки,
мм/ч
давл.,
гПа
погр.,
м
4 марта, чт
чт423:00−1з49880 0.0 1019243
02:00−1зюз49880 0.0 1018246
05:00−4юз511900 0.0 1014233
08:00−2юз612920 0.0 1011339
11:00+1зюз5109912 0.0 1009406
14:00+2юз61010045 0.0 1006492
17:00+2зюз41099100 0.0 1005323
20:00+2зсз41096100 0.1 1006456
5 марта, пт
пт523:00−1зсз499590 0.0 1006322
02:00−2зсз389691 0.0 1008242
05:00−3сз239680 0.0 101074
08:00−3ссз359076 0.0 1011208
11:00−1ссз238174 0.0 1012496
14:000ссз347487 0.0 1013747
17:00−2ссз2480100 0.0 1014109
20:00−3ссз2383100 0.0 101675
6 марта, сб
сб623:00−3сз3783100 0.0 1017260
02:00−4ссз51080100 0.0 1019487
05:00−6сз4107917 0.0 1019422
08:00−5сз510739 0.0 1020645
11:00−3сз586218 0.0 10211096
14:00−2сз576027 0.0 10211353
17:00−3ссз37680 0.0 1021397
20:00−5зсз36760 0.0 1023167
7 марта, вс
вс723:00−5зюз48780 0.0 1023252
02:00−5зюз511770 0.0 1021389
05:00−5юз7147046 0.0 1018598
08:00−3юз9166974 0.0 1015888
11:00−1зюз111770100 0.0 10101285
14:00+1з101674100 0.1 10091334
17:00+1з81577100 0.0 10081109
20:000зюз8148599 0.4 10071021
8 марта, пн
пн823:000зюз9178499 0.0 10061202
02:00−2зсз7136895 0.3 10061136
05:00−3зсз7137086 0.0 10071135
08:00−4зсз7117267 0.0 10101065
11:00−3сз6767100 0.1 10111071
14:00−2зсз4662100 0.1 10121176
17:00−3сз2374100 0.1 1012615
20:00−4св1184100 0.1 1013245